• In Netherlands
  • List of Countries
  • For 7 days
  • Water Temperature
  • Satellite Maps
  • Weather Map
  • Weather Widgets
  • user-avatar
    Login

    Hourly Weather Hobart

    Today, 25 February, Saturday

    Time Temperature Precipitation Wind Pressure Humidity
    00:00 +6°C° 0 mm 4 mps 755 mmHg 92%
    01:00 +5°C° 0 mm 4 mps 755 mmHg 93%
    02:00 +5°C° 0 mm 3 mps 755 mmHg 93%
    03:00 +4°C° 0 mm 3 mps 755 mmHg 94%
    04:00 +4°C° 0 mm 4 mps 755 mmHg 94%
    05:00 +5°C° 0 mm 3 mps 755 mmHg 90%
    06:00 +7°C° 0 mm 3 mps 756 mmHg 87%
    07:00 +7°C° 0 mm 3 mps 756 mmHg 83%
    08:00 +10°C° 0 mm 3 mps 756 mmHg 70%
    09:00 +14°C° 0 mm 2 mps 756 mmHg 57%
    10:00 +18°C° 0 mm 2 mps 756 mmHg 43%
    11:00 +19°C° 0 mm 2 mps 756 mmHg 39%
    12:00 +20°C° 0 mm 2 mps 756 mmHg 35%
    13:00 +21°C° 0 mm 2 mps 756 mmHg 30%
    14:00 +21°C° 0 mm 3 mps 756 mmHg 32%
    15:00 +20°C° 0 mm 3 mps 756 mmHg 33%
    16:00 +20°C° 0 mm 4 mps 755 mmHg 35%
    17:00 +18°C° 0 mm 3 mps 756 mmHg 48%
    18:00 +14°C° 0 mm 3 mps 756 mmHg 61%
    19:00 +12°C° 0 mm 2 mps 756 mmHg 74%
    20:00 +10°C° 0 mm 2 mps 756 mmHg 80%
    21:00 +10°C° 0 mm 1 mps 756 mmHg 85%
    22:00 +9°C° 0 mm 1 mps 756 mmHg 91%
    23:00 +9°C° 0 mm 1 mps 756 mmHg 92%

    Tomorrow, 26 February, Sunday

    Time Temperature Precipitation Wind Pressure Humidity
    00:00 +8°C° 0 mm 1 mps 756 mmHg 94%
    01:00 +7°C° 0 mm 2 mps 756 mmHg 95%
    02:00 +7°C° 0 mm 2 mps 756 mmHg 95%
    03:00 +7°C° 0 mm 2 mps 756 mmHg 95%
    04:00 +7°C° 0 mm 2 mps 755 mmHg 95%
    05:00 +8°C° 0 mm 2 mps 756 mmHg 90%
    06:00 +9°C° 0 mm 2 mps 756 mmHg 86%
    07:00 +10°C° 0 mm 2 mps 756 mmHg 81%
    08:00 +14°C° 0 mm 2 mps 756 mmHg 69%
    09:00 +19°C° 0 mm 1 mps 756 mmHg 57%
    10:00 +22°C° 0 mm 1 mps 756 mmHg 45%
    11:00 +24°C° 0 mm 1 mps 756 mmHg 41%
    12:00 +25°C° 0 mm 1 mps 756 mmHg 37%
    13:00 +27°C° 0 mm 2 mps 755 mmHg 33%
    14:00 +27°C° 0 mm 2 mps 755 mmHg 34%
    15:00 +26°C° 0 mm 3 mps 755 mmHg 35%
    16:00 +26°C° 0 mm 4 mps 755 mmHg 36%
    17:00 +22°C° 0 mm 4 mps 755 mmHg 49%
    18:00 +19°C° 0 mm 3 mps 755 mmHg 62%
    19:00 +16°C° 0 mm 3 mps 755 mmHg 75%
    20:00 +14°C° 0 mm 3 mps 755 mmHg 79%
    21:00 +13°C° 0 mm 3 mps 756 mmHg 84%
    22:00 +13°C° 0 mm 2 mps 756 mmHg 88%
    23:00 +12°C° 0 mm 2 mps 756 mmHg 88%

    Day after tomorrow, 27 February, Monday

    Time Temperature Precipitation Wind Pressure Humidity
    00:00 +12°C° 0 mm 2 mps 756 mmHg 88%
    01:00 +11°C° 0 mm 3 mps 756 mmHg 88%
    02:00 +10°C° 0 mm 3 mps 755 mmHg 89%
    03:00 +10°C° 0 mm 3 mps 755 mmHg 89%
    04:00 +10°C° 0 mm 3 mps 755 mmHg 90%
    05:00 +11°C° 0 mm 3 mps 755 mmHg 86%
    06:00 +12°C° 0 mm 3 mps 756 mmHg 83%
    07:00 +13°C° 0 mm 3 mps 756 mmHg 79%
    08:00 +17°C° 0 mm 3 mps 756 mmHg 67%
    09:00 +20°C° 0 mm 3 mps 756 mmHg 54%
    10:00 +24°C° 0 mm 3 mps 756 mmHg 42%
    11:00 +26°C° 0 mm 3 mps 756 mmHg 37%
    12:00 +28°C° 0 mm 3 mps 756 mmHg 32%
    13:00 +30°C° 0 mm 3 mps 756 mmHg 27%
    14:00 +30°C° 0 mm 4 mps 755 mmHg 28%
    15:00 +29°C° 0 mm 4 mps 755 mmHg 29%
    16:00 +29°C° 0 mm 5 mps 754 mmHg 30%
    17:00 +26°C° 0 mm 5 mps 754 mmHg 42%
    18:00 +22°C° 0 mm 4 mps 754 mmHg 55%
    19:00 +19°C° 0 mm 4 mps 754 mmHg 67%
    20:00 +18°C° 0 mm 4 mps 755 mmHg 72%
    21:00 +15°C° 0 mm 4 mps 755 mmHg 77%
    22:00 +14°C° 0 mm 3 mps 755 mmHg 82%
    23:00 +13°C° 0 mm 3 mps 755 mmHg 84%

    28 February, Tuesday

    Time Temperature Precipitation Wind Pressure Humidity
    00:00 +13°C° 0 mm 3 mps 755 mmHg 86%
    01:00 +13°C° 0 mm 3 mps 754 mmHg 88%
    02:00 +12°C° 0 mm 3 mps 754 mmHg 89%
    03:00 +12°C° 0 mm 3 mps 754 mmHg 91%
    04:00 +12°C° 0 mm 3 mps 754 mmHg 92%
    05:00 +13°C° 0 mm 3 mps 754 mmHg 88%
    06:00 +14°C° 0 mm 3 mps 754 mmHg 84%
    07:00 +14°C° 0 mm 3 mps 754 mmHg 80%
    08:00 +19°C° 0 mm 3 mps 754 mmHg 66%
    09:00 +23°C° 0 mm 2 mps 754 mmHg 53%
    10:00 +27°C° 0 mm 2 mps 754 mmHg 40%
    11:00 +28°C° 0 mm 2 mps 754 mmHg 34%
    12:00 +30°C° 0 mm 2 mps 754 mmHg 29%
    13:00 +31°C° 0 mm 2 mps 753 mmHg 23%
    14:00 +31°C° 0 mm 3 mps 753 mmHg 26%
    15:00 +30°C° 0 mm 3 mps 753 mmHg 28%
    16:00 +29°C° 0 mm 3 mps 752 mmHg 31%
    17:00 +26°C° 0 mm 3 mps 753 mmHg 47%
    18:00 +23°C° 0 mm 2 mps 753 mmHg 63%
    19:00 +19°C° 0 mm 2 mps 753 mmHg 79%
    20:00 +18°C° 0 mm 1 mps 753 mmHg 84%
    21:00 +16°C° 0 mm 1 mps 754 mmHg 89%
    22:00 +14°C° 0 mm 1 mps 754 mmHg 93%
    23:00 +14°C° 0 mm 1 mps 754 mmHg 93%

    1 March, Wednesday

    Time Temperature Precipitation Wind Pressure Humidity
    00:00 +14°C° 0 mm 1 mps 753 mmHg 93%
    01:00 +14°C° 0 mm 1 mps 753 mmHg 92%
    02:00 +14°C° 0 mm 1 mps 753 mmHg 92%
    03:00 +13°C° 0 mm 1 mps 753 mmHg 92%
    04:00 +13°C° 0 mm 1 mps 753 mmHg 92%
    05:00 +15°C° 0 mm 1 mps 753 mmHg 90%
    06:00 +16°C° 0 mm 1 mps 754 mmHg 87%
    07:00 +18°C° 0 mm 1 mps 754 mmHg 85%
    08:00 +21°C° 0 mm 1 mps 754 mmHg 72%
    09:00 +24°C° 0 mm 1 mps 754 mmHg 60%
    10:00 +27°C° 0 mm 1 mps 754 mmHg 48%
    11:00 +28°C° 0 mm 2 mps 754 mmHg 45%
    12:00 +29°C° 0 mm 2 mps 753 mmHg 42%
    13:00 +30°C° 0 mm 2 mps 753 mmHg 39%
    14:00 +30°C° 0 mm 2 mps 753 mmHg 43%
    15:00 +29°C° 0 mm 2 mps 752 mmHg 46%
    16:00 +28°C° 0 mm 3 mps 752 mmHg 50%
    17:00 +26°C° 0.2 mm 2 mps 752 mmHg 63%
    18:00 +23°C° 0.2 mm 2 mps 752 mmHg 77%
    19:00 +19°C° 0.2 mm 2 mps 753 mmHg 91%
    20:00 +18°C° 0.1 mm 2 mps 753 mmHg 93%
    21:00 +17°C° 0.1 mm 2 mps 753 mmHg 95%
    22:00 +16°C° 0.1 mm 1 mps 753 mmHg 97%
    23:00 +16°C° 0 mm 2 mps 753 mmHg 96%

    2 March, Thursday

    Time Temperature Precipitation Wind Pressure Humidity
    00:00 +17°C° 0 mm 2 mps 752 mmHg 95%
    01:00 +17°C° 0 mm 2 mps 752 mmHg 94%
    02:00 +17°C° 0 mm 2 mps 752 mmHg 94%
    03:00 +17°C° 0 mm 2 mps 752 mmHg 93%
    04:00 +17°C° 0 mm 2 mps 751 mmHg 92%
    05:00 +17°C° 0 mm 2 mps 752 mmHg 89%
    06:00 +18°C° 0 mm 2 mps 752 mmHg 86%
    07:00 +19°C° 0 mm 2 mps 752 mmHg 82%
    08:00 +23°C° 0 mm 1 mps 752 mmHg 69%
    09:00 +27°C° 0 mm 1 mps 753 mmHg 56%
    10:00 +30°C° 0 mm 1 mps 753 mmHg 43%
    11:00 +31°C° 0 mm 1 mps 752 mmHg 40%
    12:00 +32°C° 0 mm 2 mps 752 mmHg 37%
    13:00 +35°C° 0 mm 2 mps 752 mmHg 33%
    14:00 +33°C° 0.2 mm 3 mps 752 mmHg 39%
    15:00 +30°C° 0.2 mm 3 mps 751 mmHg 44%
    16:00 +28°C° 0.2 mm 3 mps 751 mmHg 49%
    17:00 +26°C° 0.4 mm 3 mps 752 mmHg 62%
    18:00 +22°C° 0.4 mm 3 mps 752 mmHg 74%
    19:00 +20°C° 0.4 mm 2 mps 752 mmHg 87%
    20:00 +19°C° 0 mm 2 mps 752 mmHg 90%
    21:00 +17°C° 0 mm 2 mps 753 mmHg 94%
    22:00 +16°C° 0 mm 1 mps 753 mmHg 97%
    23:00 +16°C° 0 mm 1 mps 753 mmHg 97%
    Show more